TDRS 13 (42915 NORAD) Tracking and Keplerian Element Data

This shows tracking and keplerian element data for the satellite.

Feedback or suggestion? Click here.




ElementValue
Catalog42915
NameTDRS 13
Epoch Orbit463
Epoch Day322.89409744
Epoch Year2018
RAAN330.9584
Inclination6.43
Eccentricity0.0026033
Argument of Perigee4.954
Mean Anonmoly354.9824
Mean Motion1.00277775
Decay Rate-2.89E-06
L11 42915U 17047A 18322.89409744 -.00000289 00000-0 00000+0 0 9990
L22 42915 6.4300 330.9584 0026033 4.9540 354.9824 1.00277775 4638

Live tracking and technical data element details for TDRS 13 (NORAD 42915). TDRS 13 can be tracked NOW for your location showing map with azimuth and elevation plus other details from your city location.

Track the satellite on the map from your city or location and see movement details for azimuth, elevation, latitude, longitude, range, height, and movement on the map or in text.







IsCatalogInMostPopularTable: catalog: 42915, numindb: 134
Update: records affected: 1



GetName: 42915 TDRS 13

Hit Count: updated at: Mon, 19 Nov 2018 13:20:26 GMT